Time,TemperatureF,DewpointF,PressureIn,WindDirection,WindDirectionDegrees,WindSpeedMPH,WindSpeedGustMPH,Humidity,HourlyPrecipIn,Conditions,Clouds,dailyrainin,SoftwareType,DateUTC
2013-10-13 00:01:00,60.8,44.6,29.69,NNE,22,4.0,5.0,55,0.00,,,0.00,meteohub,2013-10-13 05:01:00,
2013-10-13 00:06:00,60.6,44.4,29.69,NNE,22,3.0,5.0,55,0.00,,,0.00,meteohub,2013-10-13 05:06:00,
2013-10-13 00:12:00,60.4,44.2,29.69,NNE,22,2.0,5.0,55,0.00,,,0.00,meteohub,2013-10-13 05:12:00,
2013-10-13 00:17:00,60.3,44.1,29.69,North,0,3.0,5.0,55,0.00,,,0.00,meteohub,2013-10-13 05:17:00,
2013-10-13 00:22:00,60.1,43.9,29.69,North,0,3.0,5.0,55,0.00,,,0.00,meteohub,2013-10-13 05:22:00,
2013-10-13 00:27:00,59.9,43.7,29.69,North,0,6.0,6.0,55,0.00,,,0.00,meteohub,2013-10-13 05:27:00,
2013-10-13 00:32:00,59.7,43.5,29.69,NNE,22,4.0,6.0,55,0.00,,,0.00,meteohub,2013-10-13 05:32:00,
2013-10-13 00:37:00,59.5,43.0,29.69,NNE,22,6.0,6.0,54,0.00,,,0.00,meteohub,2013-10-13 05:37:00,
2013-10-13 00:42:00,59.4,42.8,29.69,North,0,3.0,6.0,54,0.00,,,0.00,meteohub,2013-10-13 05:42:00,
2013-10-13 00:47:00,59.4,42.8,29.69,NE,45,6.0,6.0,54,0.00,,,0.00,meteohub,2013-10-13 05:47:00,
2013-10-13 00:52:00,59.4,41.7,29.69,North,0,3.0,6.0,52,0.00,,,0.00,meteohub,2013-10-13 05:52:00,
2013-10-13 00:58:00,59.2,41.0,29.69,NNW,338,6.0,6.0,51,0.00,,,0.00,meteohub,2013-10-13 05:58:00,
2013-10-13 01:03:00,59.2,40.6,29.69,North,0,3.0,9.0,50,0.00,,,0.00,meteohub,2013-10-13 06:03:00,
2013-10-13 01:08:00,59.0,40.5,29.72,NNE,22,6.0,9.0,50,0.00,,,0.00,meteohub,2013-10-13 06:08:00,
2013-10-13 01:13:00,59.0,40.5,29.72,NNE,22,6.0,9.0,50,0.00,,,0.00,meteohub,2013-10-13 06:13:00,
2013-10-13 01:18:00,58.8,39.7,29.72,NNW,338,4.0,7.0,49,0.00,,,0.00,meteohub,2013-10-13 06:18:00,
2013-10-13 01:23:00,58.6,39.6,29.69,NNE,22,5.0,7.0,49,0.00,,,0.00,meteohub,2013-10-13 06:23:00,
2013-10-13 01:28:00,58.5,39.4,29.69,North,0,5.0,6.0,49,0.00,,,0.00,meteohub,2013-10-13 06:28:00,
2013-10-13 01:33:00,58.5,39.4,29.69,NE,45,3.0,8.0,49,0.00,,,0.00,meteohub,2013-10-13 06:33:00,
2013-10-13 01:38:00,58.3,39.2,29.69,NNE,22,4.0,8.0,49,0.00,,,0.00,meteohub,2013-10-13 06:38:00,
2013-10-13 01:43:00,58.3,38.7,29.69,NNE,22,6.0,8.0,48,0.00,,,0.00,meteohub,2013-10-13 06:43:00,
2013-10-13 01:49:00,58.1,39.0,29.69,NNE,22,3.0,9.0,49,0.00,,,0.00,meteohub,2013-10-13 06:49:00,
2013-10-13 01:54:00,57.9,38.8,29.66,NNE,22,4.0,9.0,49,0.00,,,0.00,meteohub,2013-10-13 06:54:00,
2013-10-13 01:59:00,57.7,38.7,29.66,NNE,22,4.0,9.0,49,0.00,,,0.00,meteohub,2013-10-13 06:59:00,
2013-10-13 02:04:00,57.6,38.7,29.69,North,0,4.0,6.0,49,0.00,,,0.00,meteohub,2013-10-13 07:04:00,
2013-10-13 02:09:00,57.4,38.5,29.69,NE,45,4.0,6.0,49,0.00,,,0.00,meteohub,2013-10-13 07:09:00,
2013-10-13 02:14:00,57.2,38.3,29.69,NNE,22,4.0,6.0,49,0.00,,,0.00,meteohub,2013-10-13 07:14:00,
2013-10-13 02:19:00,57.2,38.3,29.69,NE,45,4.0,7.0,49,0.00,,,0.00,meteohub,2013-10-13 07:19:00,
2013-10-13 02:24:00,57.0,38.1,29.69,North,0,4.0,7.0,49,0.00,,,0.00,meteohub,2013-10-13 07:24:00,
2013-10-13 02:29:00,56.8,37.9,29.69,NNE,22,3.0,7.0,49,0.00,,,0.00,meteohub,2013-10-13 07:29:00,
2013-10-13 02:34:00,56.8,37.9,29.69,NNE,22,4.0,6.0,49,0.00,,,0.00,meteohub,2013-10-13 07:34:00,
2013-10-13 02:39:00,56.7,37.8,29.69,NNE,22,3.0,6.0,49,0.00,,,0.00,meteohub,2013-10-13 07:39:00,
2013-10-13 02:45:00,56.7,37.8,29.69,North,0,4.0,6.0,49,0.00,,,0.00,meteohub,2013-10-13 07:45:00,
2013-10-13 02:50:00,56.7,37.8,29.69,North,0,5.0,6.0,49,0.00,,,0.00,meteohub,2013-10-13 07:50:00,
2013-10-13 02:55:00,56.5,37.6,29.69,North,0,4.0,6.0,49,0.00,,,0.00,meteohub,2013-10-13 07:55:00,
2013-10-13 03:00:00,56.3,37.4,29.69,NNE,22,3.0,6.0,49,0.00,,,0.00,meteohub,2013-10-13 08:00:00,
2013-10-13 03:05:00,56.3,37.4,29.69,North,0,6.0,6.0,49,0.00,,,0.00,meteohub,2013-10-13 08:05:00,
2013-10-13 03:10:00,56.1,37.2,29.69,North,0,4.0,6.0,49,0.00,,,0.00,meteohub,2013-10-13 08:10:00,
2013-10-13 03:15:00,56.1,37.2,29.69,North,0,6.0,6.0,49,0.00,,,0.00,meteohub,2013-10-13 08:15:00,
2013-10-13 03:20:00,55.9,37.0,29.69,NNE,22,4.0,6.0,49,0.00,,,0.00,meteohub,2013-10-13 08:20:00,
2013-10-13 03:25:00,55.9,37.0,29.69,North,0,5.0,6.0,49,0.00,,,0.00,meteohub,2013-10-13 08:25:00,
2013-10-13 03:30:00,55.8,36.9,29.69,NNE,22,3.0,6.0,49,0.00,,,0.00,meteohub,2013-10-13 08:30:00,
2013-10-13 03:36:00,55.6,36.7,29.69,North,0,3.0,6.0,49,0.00,,,0.00,meteohub,2013-10-13 08:36:00,
2013-10-13 03:41:00,55.4,36.5,29.69,NNE,22,4.0,5.0,49,0.00,,,0.00,meteohub,2013-10-13 08:41:00,
2013-10-13 03:46:00,55.4,36.5,29.69,NNE,22,6.0,6.0,49,0.00,,,0.00,meteohub,2013-10-13 08:46:00,
2013-10-13 03:51:00,55.2,36.9,29.69,NNW,338,4.0,6.0,50,0.00,,,0.00,meteohub,2013-10-13 08:51:00,
2013-10-13 03:56:00,55.0,36.7,29.69,North,0,4.0,6.0,50,0.00,,,0.00,meteohub,2013-10-13 08:56:00,
2013-10-13 04:01:00,55.0,36.7,29.69,NNW,338,6.0,6.0,50,0.00,,,0.00,meteohub,2013-10-13 09:01:00,
2013-10-13 04:06:00,55.0,36.7,29.72,NW,315,4.0,6.0,50,0.00,,,0.00,meteohub,2013-10-13 09:06:00,
2013-10-13 04:11:00,54.9,36.7,29.72,North,0,4.0,6.0,50,0.00,,,0.00,meteohub,2013-10-13 09:11:00,
2013-10-13 04:16:00,54.7,36.5,29.72,North,0,3.0,6.0,50,0.00,,,0.00,meteohub,2013-10-13 09:16:00,
2013-10-13 04:21:00,54.7,36.5,29.72,NNE,22,3.0,5.0,50,0.00,,,0.00,meteohub,2013-10-13 09:21:00,
2013-10-13 04:26:00,54.5,36.9,29.72,North,0,3.0,5.0,51,0.00,,,0.00,meteohub,2013-10-13 09:26:00,
2013-10-13 04:31:00,54.3,36.7,29.72,NNE,22,4.0,5.0,51,0.00,,,0.00,meteohub,2013-10-13 09:31:00,
2013-10-13 04:36:00,54.1,36.5,29.72,North,0,4.0,6.0,51,0.00,,,0.00,meteohub,2013-10-13 09:36:00,
2013-10-13 04:42:00,54.0,36.3,29.72,North,0,4.0,6.0,51,0.00,,,0.00,meteohub,2013-10-13 09:42:00,
2013-10-13 04:47:00,53.8,36.7,29.72,North,0,3.0,6.0,52,0.00,,,0.00,meteohub,2013-10-13 09:47:00,
2013-10-13 04:52:00,53.6,36.5,29.72,NNW,338,4.0,5.0,52,0.00,,,0.00,meteohub,2013-10-13 09:52:00,
2013-10-13 04:57:00,53.4,36.3,29.72,NNW,338,3.0,5.0,52,0.00,,,0.00,meteohub,2013-10-13 09:57:00,
2013-10-13 05:02:00,53.2,36.5,29.72,NNW,338,2.0,5.0,53,0.00,,,0.00,meteohub,2013-10-13 10:02:00,
2013-10-13 05:07:00,53.2,36.5,29.72,North,0,3.0,5.0,53,0.00,,,0.00,meteohub,2013-10-13 10:07:00,
2013-10-13 05:12:00,53.2,36.5,29.72,North,0,4.0,5.0,53,0.00,,,0.00,meteohub,2013-10-13 10:12:00,
2013-10-13 05:17:00,53.1,36.5,29.72,North,0,3.0,6.0,53,0.00,,,0.00,meteohub,2013-10-13 10:17:00,
2013-10-13 05:22:00,53.1,36.5,29.75,NNE,22,3.0,6.0,53,0.00,,,0.00,meteohub,2013-10-13 10:22:00,
2013-10-13 05:27:00,53.1,36.5,29.75,NW,315,4.0,6.0,53,0.00,,,0.00,meteohub,2013-10-13 10:27:00,
2013-10-13 05:32:00,52.9,36.3,29.75,North,0,4.0,5.0,53,0.00,,,0.00,meteohub,2013-10-13 10:32:00,
2013-10-13 05:37:00,52.7,36.1,29.75,North,0,3.0,5.0,53,0.00,,,0.00,meteohub,2013-10-13 10:37:00,
2013-10-13 05:42:00,52.5,36.0,29.75,NNW,338,3.0,5.0,53,0.00,,,0.00,meteohub,2013-10-13 10:42:00,
2013-10-13 05:47:00,52.3,36.1,29.75,North,0,3.0,5.0,54,0.00,,,0.00,meteohub,2013-10-13 10:47:00,
2013-10-13 05:53:00,52.3,36.1,29.78,NW,315,2.0,5.0,54,0.00,,,0.00,meteohub,2013-10-13 10:53:00,
2013-10-13 05:58:00,52.2,36.0,29.78,NNW,338,1.0,3.0,54,0.00,,,0.00,meteohub,2013-10-13 10:58:00,
2013-10-13 06:03:00,52.0,36.3,29.78,NE,45,3.0,3.0,55,0.00,,,0.00,meteohub,2013-10-13 11:03:00,
2013-10-13 06:08:00,52.0,36.3,29.72,NNE,22,1.0,3.0,55,0.00,,,0.00,meteohub,2013-10-13 11:08:00,
2013-10-13 06:13:00,51.8,36.1,29.72,North,0,2.0,3.0,55,0.00,,,0.00,meteohub,2013-10-13 11:13:00,
2013-10-13 06:18:00,51.6,36.0,29.72,NNW,338,2.0,3.0,55,0.00,,,0.00,meteohub,2013-10-13 11:18:00,
2013-10-13 06:23:00,51.4,36.3,29.75,NNE,22,2.0,3.0,56,0.00,,,0.00,meteohub,2013-10-13 11:23:00,
2013-10-13 06:28:00,51.4,36.3,29.75,North,0,2.0,4.0,56,0.00,,,0.00,meteohub,2013-10-13 11:28:00,
2013-10-13 06:33:00,51.4,36.3,29.75,NNE,22,3.0,4.0,56,0.00,,,0.00,meteohub,2013-10-13 11:33:00,
2013-10-13 06:38:00,51.4,36.7,29.72,NNE,22,3.0,4.0,57,0.00,,,0.00,meteohub,2013-10-13 11:38:00,
2013-10-13 06:43:00,51.3,36.5,29.72,NNE,22,3.0,4.0,57,0.00,,,0.00,meteohub,2013-10-13 11:43:00,
2013-10-13 06:48:00,51.1,36.3,29.72,North,0,3.0,4.0,57,0.00,,,0.00,meteohub,2013-10-13 11:48:00,
2013-10-13 06:53:00,50.9,36.3,29.75,NNE,22,3.0,4.0,57,0.00,,,0.00,meteohub,2013-10-13 11:53:00,
2013-10-13 06:58:00,50.9,36.3,29.75,NE,45,3.0,6.0,57,0.00,,,0.00,meteohub,2013-10-13 11:58:00,
2013-10-13 07:04:00,50.7,36.5,29.75,NE,45,3.0,6.0,58,0.00,,,0.00,meteohub,2013-10-13 12:04:00,
2013-10-13 07:09:00,50.7,36.5,29.75,NNE,22,4.0,6.0,58,0.00,,,0.00,meteohub,2013-10-13 12:09:00,
2013-10-13 07:14:00,50.7,36.5,29.75,NE,45,4.0,4.0,58,0.00,,,0.00,meteohub,2013-10-13 12:14:00,
2013-10-13 07:19:00,50.7,36.5,29.78,NE,45,4.0,5.0,58,0.00,,,0.00,meteohub,2013-10-13 12:19:00,
2013-10-13 07:24:00,50.9,36.7,29.78,NNE,22,3.0,5.0,58,0.00,,,0.00,meteohub,2013-10-13 12:24:00,
2013-10-13 07:29:00,50.7,36.5,29.78,NNE,22,3.0,5.0,58,0.00,,,0.00,meteohub,2013-10-13 12:29:00,
2013-10-13 07:34:00,50.9,36.7,29.78,NNE,22,3.0,5.0,58,0.00,,,0.00,meteohub,2013-10-13 12:34:00,
2013-10-13 07:39:00,50.9,36.7,29.78,NNE,22,4.0,5.0,58,0.00,,,0.00,meteohub,2013-10-13 12:39:00,
2013-10-13 07:44:00,51.1,36.3,29.78,North,0,4.0,5.0,57,0.00,,,0.00,meteohub,2013-10-13 12:44:00,
2013-10-13 07:49:00,51.3,36.5,29.75,NE,45,3.0,5.0,57,0.00,,,0.00,meteohub,2013-10-13 12:49:00,
2013-10-13 07:54:00,51.6,36.9,29.75,North,0,3.0,6.0,57,0.00,,,0.00,meteohub,2013-10-13 12:54:00,
2013-10-13 07:59:00,51.8,36.7,29.75,NE,45,3.0,6.0,56,0.00,,,0.00,meteohub,2013-10-13 12:59:00,
2013-10-13 08:04:00,52.2,36.5,29.78,North,0,3.0,5.0,55,0.00,,,0.00,meteohub,2013-10-13 13:04:00,
2013-10-13 08:09:00,52.5,36.3,29.78,North,0,7.0,7.0,54,0.00,,,0.00,meteohub,2013-10-13 13:09:00,
2013-10-13 08:15:00,52.9,36.7,29.78,North,0,6.0,7.0,54,0.00,,,0.00,meteohub,2013-10-13 13:15:00,
2013-10-13 08:20:00,53.4,36.3,29.78,North,0,5.0,7.0,52,0.00,,,0.00,meteohub,2013-10-13 13:20:00,
2013-10-13 08:25:00,54.0,36.3,29.78,North,0,6.0,8.0,51,0.00,,,0.00,meteohub,2013-10-13 13:25:00,
2013-10-13 08:30:00,54.5,36.3,29.78,North,0,6.0,8.0,50,0.00,,,0.00,meteohub,2013-10-13 13:30:00,
2013-10-13 08:35:00,54.9,36.1,29.81,NNE,22,7.0,8.0,49,0.00,,,0.00,meteohub,2013-10-13 13:35:00,
2013-10-13 08:40:00,55.8,36.9,29.81,NNE,22,6.0,8.0,49,0.00,,,0.00,meteohub,2013-10-13 13:40:00,
2013-10-13 08:45:00,56.3,37.4,29.81,NNE,22,6.0,8.0,49,0.00,,,0.00,meteohub,2013-10-13 13:45:00,
2013-10-13 08:50:00,56.8,36.9,29.81,NNE,22,5.0,9.0,47,0.00,,,0.00,meteohub,2013-10-13 13:50:00,
2013-10-13 08:55:00,57.4,36.3,29.81,NNE,22,6.0,9.0,45,0.00,,,0.00,meteohub,2013-10-13 13:55:00,
2013-10-13 09:00:00,58.1,37.4,29.81,NNE,22,4.0,9.0,46,0.00,,,0.00,meteohub,2013-10-13 14:00:00,
2013-10-13 09:05:00,58.5,37.2,29.81,NE,45,7.0,8.0,45,0.00,,,0.00,meteohub,2013-10-13 14:05:00,
2013-10-13 09:10:00,58.6,36.3,29.81,ENE,68,4.0,8.0,43,0.00,,,0.00,meteohub,2013-10-13 14:10:00,
2013-10-13 09:15:00,59.2,36.1,29.81,NE,45,3.0,10.0,42,0.00,,,0.00,meteohub,2013-10-13 14:15:00,
2013-10-13 09:20:00,59.4,36.3,29.81,ENE,68,4.0,10.0,42,0.00,,,0.00,meteohub,2013-10-13 14:20:00,
2013-10-13 09:26:00,59.7,36.0,29.81,NNE,22,6.0,7.0,41,0.00,,,0.00,meteohub,2013-10-13 14:26:00,
2013-10-13 09:31:00,60.1,36.3,29.81,NNE,22,3.0,6.0,41,0.00,,,0.00,meteohub,2013-10-13 14:31:00,
2013-10-13 09:36:00,60.1,35.1,29.81,ENE,68,4.0,6.0,39,0.00,,,0.00,meteohub,2013-10-13 14:36:00,
2013-10-13 09:41:00,60.4,35.4,29.81,NNE,22,8.0,8.0,39,0.00,,,0.00,meteohub,2013-10-13 14:41:00,
2013-10-13 09:46:00,60.6,34.2,29.81,NE,45,6.0,10.0,37,0.00,,,0.00,meteohub,2013-10-13 14:46:00,
2013-10-13 09:51:00,61.0,34.5,29.81,NE,45,7.0,10.0,37,0.00,,,0.00,meteohub,2013-10-13 14:51:00,
2013-10-13 09:56:00,61.2,34.7,29.81,NE,45,6.0,9.0,37,0.00,,,0.00,meteohub,2013-10-13 14:56:00,
2013-10-13 10:01:00,61.5,35.1,29.81,ENE,68,4.0,9.0,37,0.00,,,0.00,meteohub,2013-10-13 15:01:00,
2013-10-13 10:06:00,61.9,36.0,29.81,North,0,3.0,9.0,38,0.00,,,0.00,meteohub,2013-10-13 15:06:00,
2013-10-13 10:11:00,62.4,35.2,29.81,NE,45,9.0,9.0,36,0.00,,,0.00,meteohub,2013-10-13 15:11:00,
2013-10-13 10:16:00,62.4,35.2,29.81,NNE,22,4.0,13.0,36,0.00,,,0.00,meteohub,2013-10-13 15:16:00,
2013-10-13 10:21:00,62.6,34.5,29.81,NNE,22,6.0,13.0,35,0.00,,,0.00,meteohub,2013-10-13 15:21:00,
2013-10-13 10:26:00,63.0,34.2,29.81,ENE,68,8.0,13.0,34,0.00,,,0.00,meteohub,2013-10-13 15:26:00,
2013-10-13 10:31:00,63.3,33.8,29.81,ENE,68,11.0,13.0,33,0.00,,,0.00,meteohub,2013-10-13 15:31:00,
2013-10-13 10:37:00,63.7,34.2,29.81,ENE,68,6.0,13.0,33,0.00,,,0.00,meteohub,2013-10-13 15:37:00,
2013-10-13 10:42:00,64.0,34.3,29.81,NNE,22,4.0,13.0,33,0.00,,,0.00,meteohub,2013-10-13 15:42:00,
2013-10-13 10:47:00,64.2,33.8,29.81,NE,45,4.0,11.0,32,0.00,,,0.00,meteohub,2013-10-13 15:47:00,
2013-10-13 10:52:00,64.6,33.3,29.78,NNE,22,4.0,10.0,31,0.00,,,0.00,meteohub,2013-10-13 15:52:00,
2013-10-13 10:57:00,65.1,33.8,29.78,East,90,10.0,10.0,31,0.00,,,0.00,meteohub,2013-10-13 15:57:00,
2013-10-13 11:02:00,65.1,30.4,29.78,ENE,68,8.0,10.0,27,0.00,,,0.00,meteohub,2013-10-13 16:02:00,
2013-10-13 11:07:00,65.5,31.6,29.81,NNE,22,9.0,11.0,28,0.00,,,0.00,meteohub,2013-10-13 16:07:00,
2013-10-13 11:12:00,65.5,29.7,29.81,NE,45,6.0,11.0,26,0.00,,,0.00,meteohub,2013-10-13 16:12:00,
2013-10-13 11:17:00,66.0,30.2,29.81,NNE,22,8.0,11.0,26,0.00,,,0.00,meteohub,2013-10-13 16:17:00,
2013-10-13 11:22:00,66.0,29.3,29.81,NE,45,8.0,11.0,25,0.00,,,0.00,meteohub,2013-10-13 16:22:00,
2013-10-13 11:27:00,66.0,29.3,29.81,NE,45,9.0,11.0,25,0.00,,,0.00,meteohub,2013-10-13 16:27:00,
2013-10-13 11:32:00,66.4,29.5,29.81,East,90,5.0,13.0,25,0.00,,,0.00,meteohub,2013-10-13 16:32:00,
2013-10-13 11:37:00,66.6,29.7,29.81,NE,45,6.0,13.0,25,0.00,,,0.00,meteohub,2013-10-13 16:37:00,
2013-10-13 11:42:00,66.7,29.8,29.81,ENE,68,4.0,13.0,25,0.00,,,0.00,meteohub,2013-10-13 16:42:00,
2013-10-13 11:47:00,66.9,30.0,29.81,North,0,7.0,15.0,25,0.00,,,0.00,meteohub,2013-10-13 16:47:00,
2013-10-13 11:52:00,67.1,30.2,29.81,NE,45,8.0,15.0,25,0.00,,,0.00,meteohub,2013-10-13 16:52:00,
2013-10-13 11:57:00,67.3,29.3,29.81,NNE,22,9.0,15.0,24,0.00,,,0.00,meteohub,2013-10-13 16:57:00,
2013-10-13 12:02:00,67.5,29.5,29.81,NNE,22,6.0,10.0,24,0.00,,,0.00,meteohub,2013-10-13 17:02:00,
2013-10-13 12:07:00,67.6,29.7,29.81,NE,45,6.0,12.0,24,0.00,,,0.00,meteohub,2013-10-13 17:07:00,
2013-10-13 12:12:00,67.6,29.7,29.81,NNW,338,7.0,12.0,24,0.00,,,0.00,meteohub,2013-10-13 17:12:00,
2013-10-13 12:17:00,67.8,29.8,29.81,NNE,22,6.0,13.0,24,0.00,,,0.00,meteohub,2013-10-13 17:17:00,
2013-10-13 12:22:00,68.0,28.9,29.81,NE,45,8.0,13.0,23,0.00,,,0.00,meteohub,2013-10-13 17:22:00,
2013-10-13 12:27:00,68.2,28.9,29.81,North,0,2.0,12.0,23,0.00,,,0.00,meteohub,2013-10-13 17:27:00,
2013-10-13 12:32:00,68.4,29.1,29.81,North,0,12.0,13.0,23,0.00,,,0.00,meteohub,2013-10-13 17:32:00,
2013-10-13 12:37:00,68.5,29.3,29.81,NE,45,4.0,13.0,23,0.00,,,0.00,meteohub,2013-10-13 17:37:00,
2013-10-13 12:42:00,68.7,29.5,29.81,East,90,3.0,13.0,23,0.00,,,0.00,meteohub,2013-10-13 17:42:00,
2013-10-13 12:47:00,69.1,29.8,29.81,NW,315,6.0,12.0,23,0.00,,,0.00,meteohub,2013-10-13 17:47:00,
2013-10-13 12:53:00,69.3,29.8,29.78,NNE,22,5.0,10.0,23,0.00,,,0.00,meteohub,2013-10-13 17:53:00,
2013-10-13 12:58:00,69.3,29.8,29.78,North,0,6.0,9.0,23,0.00,,,0.00,meteohub,2013-10-13 17:58:00,
2013-10-13 13:03:00,69.4,30.0,29.78,ENE,68,4.0,9.0,23,0.00,,,0.00,meteohub,2013-10-13 18:03:00,
2013-10-13 13:08:00,69.6,30.2,29.78,NE,45,6.0,9.0,23,0.00,,,0.00,meteohub,2013-10-13 18:08:00,
2013-10-13 13:13:00,69.8,29.3,29.78,NNE,22,8.0,11.0,22,0.00,,,0.00,meteohub,2013-10-13 18:13:00,
2013-10-13 13:18:00,69.6,30.2,29.78,NE,45,8.0,12.0,23,0.00,,,0.00,meteohub,2013-10-13 18:18:00,
2013-10-13 13:23:00,69.8,29.3,29.75,ENE,68,4.0,12.0,22,0.00,,,0.00,meteohub,2013-10-13 18:23:00,
2013-10-13 13:28:00,70.2,29.7,29.75,NNE,22,5.0,12.0,22,0.00,,,0.00,meteohub,2013-10-13 18:28:00,
2013-10-13 13:33:00,70.3,29.7,29.75,NE,45,6.0,11.0,22,0.00,,,0.00,meteohub,2013-10-13 18:33:00,
2013-10-13 13:38:00,70.3,29.7,29.75,NE,45,6.0,8.0,22,0.00,,,0.00,meteohub,2013-10-13 18:38:00,
2013-10-13 13:43:00,70.3,29.7,29.75,NNE,22,4.0,10.0,22,0.00,,,0.00,meteohub,2013-10-13 18:43:00,
2013-10-13 13:49:00,70.7,30.0,29.75,ENE,68,5.0,13.0,22,0.00,,,0.00,meteohub,2013-10-13 18:49:00,
2013-10-13 13:54:00,71.1,30.4,29.75,NNW,338,5.0,13.0,22,0.00,,,0.00,meteohub,2013-10-13 18:54:00,
2013-10-13 13:59:00,71.1,30.4,29.75,North,0,10.0,13.0,22,0.00,,,0.00,meteohub,2013-10-13 18:59:00,
2013-10-13 14:04:00,71.1,30.4,29.75,NE,45,6.0,11.0,22,0.00,,,0.00,meteohub,2013-10-13 19:04:00,
2013-10-13 14:09:00,71.4,30.6,29.75,North,0,9.0,11.0,22,0.00,,,0.00,meteohub,2013-10-13 19:09:00,
2013-10-13 14:14:00,71.6,30.7,29.75,ENE,68,6.0,11.0,22,0.00,,,0.00,meteohub,2013-10-13 19:14:00,
2013-10-13 14:19:00,72.0,31.1,29.75,NNW,338,8.0,9.0,22,0.00,,,0.00,meteohub,2013-10-13 19:19:00,
2013-10-13 14:24:00,72.0,31.1,29.75,North,0,5.0,9.0,22,0.00,,,0.00,meteohub,2013-10-13 19:24:00,
2013-10-13 14:29:00,71.8,29.8,29.75,ENE,68,5.0,8.0,21,0.00,,,0.00,meteohub,2013-10-13 19:29:00,
2013-10-13 14:34:00,72.0,30.0,29.78,NNW,338,9.0,9.0,21,0.00,,,0.00,meteohub,2013-10-13 19:34:00,
2013-10-13 14:39:00,72.1,30.0,29.78,NNE,22,8.0,10.0,21,0.00,,,0.00,meteohub,2013-10-13 19:39:00,
2013-10-13 14:45:00,72.3,31.5,29.78,NNW,338,9.0,10.0,22,0.00,,,0.00,meteohub,2013-10-13 19:45:00,
2013-10-13 14:50:00,72.5,30.4,29.75,NW,315,6.0,10.0,21,0.00,,,0.00,meteohub,2013-10-13 19:50:00,
2013-10-13 14:55:00,72.3,30.2,29.75,NNE,22,3.0,9.0,21,0.00,,,0.00,meteohub,2013-10-13 19:55:00,
2013-10-13 15:00:00,72.0,30.0,29.75,NNW,338,8.0,11.0,21,0.00,,,0.00,meteohub,2013-10-13 20:00:00,
2013-10-13 15:05:00,72.1,30.0,29.75,North,0,6.0,11.0,21,0.00,,,0.00,meteohub,2013-10-13 20:05:00,
2013-10-13 15:10:00,72.1,30.0,29.75,North,0,6.0,11.0,21,0.00,,,0.00,meteohub,2013-10-13 20:10:00,
2013-10-13 15:15:00,72.0,30.0,29.75,NNW,338,3.0,9.0,21,0.00,,,0.00,meteohub,2013-10-13 20:15:00,
2013-10-13 15:20:00,72.1,31.3,29.75,NNW,338,2.0,8.0,22,0.00,,,0.00,meteohub,2013-10-13 20:20:00,
2013-10-13 15:25:00,72.3,31.5,29.75,West,270,3.0,7.0,22,0.00,,,0.00,meteohub,2013-10-13 20:25:00,
2013-10-13 15:30:00,72.0,30.0,29.75,NNW,338,4.0,8.0,21,0.00,,,0.00,meteohub,2013-10-13 20:30:00,
2013-10-13 15:36:00,71.8,29.8,29.75,NNW,338,9.0,10.0,21,0.00,,,0.00,meteohub,2013-10-13 20:36:00,
2013-10-13 15:41:00,71.6,29.7,29.75,North,0,4.0,10.0,21,0.00,,,0.00,meteohub,2013-10-13 20:41:00,
2013-10-13 15:46:00,71.4,30.6,29.75,NW,315,4.0,10.0,22,0.00,,,0.00,meteohub,2013-10-13 20:46:00,
2013-10-13 15:51:00,71.6,30.7,29.75,North,0,6.0,9.0,22,0.00,,,0.00,meteohub,2013-10-13 20:51:00,
2013-10-13 15:56:00,71.4,30.6,29.75,North,0,6.0,9.0,22,0.00,,,0.00,meteohub,2013-10-13 20:56:00,
2013-10-13 16:01:00,71.2,30.6,29.75,NNE,22,7.0,11.0,22,0.00,,,0.00,meteohub,2013-10-13 21:01:00,
2013-10-13 16:06:00,71.1,30.4,29.72,NNE,22,6.0,11.0,22,0.00,,,0.00,meteohub,2013-10-13 21:06:00,
2013-10-13 16:11:00,70.9,30.2,29.72,NNE,22,3.0,11.0,22,0.00,,,0.00,meteohub,2013-10-13 21:11:00,
2013-10-13 16:16:00,70.9,30.2,29.72,North,0,9.0,11.0,22,0.00,,,0.00,meteohub,2013-10-13 21:16:00,
2013-10-13 16:21:00,70.9,30.2,29.72,NNE,22,4.0,10.0,22,0.00,,,0.00,meteohub,2013-10-13 21:21:00,
2013-10-13 16:26:00,70.9,30.2,29.72,NNW,338,4.0,9.0,22,0.00,,,0.00,meteohub,2013-10-13 21:26:00,
2013-10-13 16:32:00,70.9,30.2,29.72,NNE,22,6.0,9.0,22,0.00,,,0.00,meteohub,2013-10-13 21:32:00,
2013-10-13 16:37:00,70.9,30.2,29.72,NNW,338,8.0,10.0,22,0.00,,,0.00,meteohub,2013-10-13 21:37:00,
2013-10-13 16:42:00,70.7,30.0,29.72,NNE,22,7.0,10.0,22,0.00,,,0.00,meteohub,2013-10-13 21:42:00,
2013-10-13 16:47:00,70.5,29.8,29.72,North,0,4.0,10.0,22,0.00,,,0.00,meteohub,2013-10-13 21:47:00,
2013-10-13 16:52:00,70.5,29.8,29.72,NE,45,4.0,9.0,22,0.00,,,0.00,meteohub,2013-10-13 21:52:00,
2013-10-13 16:57:00,70.5,29.8,29.72,NNE,22,3.0,8.0,22,0.00,,,0.00,meteohub,2013-10-13 21:57:00,
2013-10-13 17:02:00,70.5,29.8,29.72,NNE,22,3.0,7.0,22,0.00,,,0.00,meteohub,2013-10-13 22:02:00,
2013-10-13 17:07:00,70.5,29.8,29.72,North,0,3.0,6.0,22,0.00,,,0.00,meteohub,2013-10-13 22:07:00,
2013-10-13 17:12:00,70.3,29.7,29.72,NE,45,2.0,6.0,22,0.00,,,0.00,meteohub,2013-10-13 22:12:00,
2013-10-13 17:17:00,70.2,29.7,29.72,NNE,22,4.0,8.0,22,0.00,,,0.00,meteohub,2013-10-13 22:17:00,
2013-10-13 17:22:00,70.0,29.5,29.72,NNW,338,4.0,8.0,22,0.00,,,0.00,meteohub,2013-10-13 22:22:00,
2013-10-13 17:27:00,69.8,29.3,29.72,North,0,2.0,8.0,22,0.00,,,0.00,meteohub,2013-10-13 22:27:00,
2013-10-13 17:32:00,69.6,29.1,29.72,NNW,338,5.0,6.0,22,0.00,,,0.00,meteohub,2013-10-13 22:32:00,
2013-10-13 17:37:00,69.4,28.9,29.72,NNW,338,3.0,6.0,22,0.00,,,0.00,meteohub,2013-10-13 22:37:00,
2013-10-13 17:42:00,69.3,29.8,29.72,North,0,3.0,6.0,23,0.00,,,0.00,meteohub,2013-10-13 22:42:00,
2013-10-13 17:47:00,69.1,29.8,29.72,NNW,338,3.0,6.0,23,0.00,,,0.00,meteohub,2013-10-13 22:47:00,
2013-10-13 17:52:00,68.7,29.5,29.72,North,0,3.0,4.0,23,0.00,,,0.00,meteohub,2013-10-13 22:52:00,
2013-10-13 17:58:00,68.4,29.1,29.72,North,0,2.0,5.0,23,0.00,,,0.00,meteohub,2013-10-13 22:58:00,
2013-10-13 18:03:00,68.0,28.9,29.72,North,0,3.0,5.0,23,0.00,,,0.00,meteohub,2013-10-13 23:03:00,
2013-10-13 18:08:00,67.6,28.6,29.72,NNE,22,3.0,5.0,23,0.00,,,0.00,meteohub,2013-10-13 23:08:00,
2013-10-13 18:13:00,67.3,29.3,29.72,NNE,22,2.0,3.0,24,0.00,,,0.00,meteohub,2013-10-13 23:13:00,
2013-10-13 18:18:00,66.9,28.9,29.72,NNE,22,2.0,3.0,24,0.00,,,0.00,meteohub,2013-10-13 23:18:00,
2013-10-13 18:23:00,66.4,28.6,29.72,NNE,22,2.0,3.0,24,0.00,,,0.00,meteohub,2013-10-13 23:23:00,
2013-10-13 18:28:00,65.8,29.1,29.72,NNE,22,1.0,3.0,25,0.00,,,0.00,meteohub,2013-10-13 23:28:00,
2013-10-13 18:33:00,64.8,29.1,29.72,NNE,22,2.0,3.0,26,0.00,,,0.00,meteohub,2013-10-13 23:33:00,
2013-10-13 18:38:00,64.0,30.4,29.75,NNE,22,1.0,3.0,28,0.00,,,0.00,meteohub,2013-10-13 23:38:00,
2013-10-13 18:44:00,63.1,32.0,29.75,NE,45,1.0,2.0,31,0.00,,,0.00,meteohub,2013-10-13 23:44:00,
2013-10-13 18:49:00,62.4,33.8,29.75,NE,45,1.0,2.0,34,0.00,,,0.00,meteohub,2013-10-13 23:49:00,
2013-10-13 18:54:00,61.9,33.3,29.75,NE,45,1.0,2.0,34,0.00,,,0.00,meteohub,2013-10-13 23:54:00,
2013-10-13 18:59:00,61.3,32.7,29.75,NE,45,2.0,2.0,34,0.00,,,0.00,meteohub,2013-10-13 23:59:00,
2013-10-13 19:04:00,61.0,33.3,29.75,NE,45,1.0,2.0,35,0.00,,,0.00,meteohub,2013-10-14 00:04:00,
2013-10-13 19:09:00,60.4,33.4,29.75,NE,45,1.0,2.0,36,0.00,,,0.00,meteohub,2013-10-14 00:09:00,
2013-10-13 19:14:00,60.3,33.3,29.75,NE,45,2.0,2.0,36,0.00,,,0.00,meteohub,2013-10-14 00:14:00,
2013-10-13 19:20:00,60.3,33.3,29.75,NE,45,1.0,2.0,36,0.00,,,0.00,meteohub,2013-10-14 00:20:00,
2013-10-13 19:25:00,60.1,33.1,29.75,NE,45,2.0,2.0,36,0.00,,,0.00,meteohub,2013-10-14 00:25:00,
2013-10-13 19:30:00,59.9,32.9,29.75,NE,45,2.0,2.0,36,0.00,,,0.00,meteohub,2013-10-14 00:30:00,
2013-10-13 19:35:00,59.7,34.2,29.75,NE,45,1.0,2.0,38,0.00,,,0.00,meteohub,2013-10-14 00:35:00,
2013-10-13 19:40:00,59.0,33.4,29.75,NE,45,1.0,2.0,38,0.00,,,0.00,meteohub,2013-10-14 00:40:00,
2013-10-13 19:45:00,58.6,33.8,29.75,NE,45,1.0,2.0,39,0.00,,,0.00,meteohub,2013-10-14 00:45:00,
2013-10-13 19:50:00,58.5,33.6,29.75,NE,45,2.0,2.0,39,0.00,,,0.00,meteohub,2013-10-14 00:50:00,
2013-10-13 19:55:00,58.5,33.6,29.75,NE,45,1.0,2.0,39,0.00,,,0.00,meteohub,2013-10-14 00:55:00,
2013-10-13 20:00:00,58.3,33.4,29.75,NNE,22,1.0,2.0,39,0.00,,,0.00,meteohub,2013-10-14 01:00:00,
2013-10-13 20:06:00,58.3,33.4,29.75,NNE,22,1.0,2.0,39,0.00,,,0.00,meteohub,2013-10-14 01:06:00,
2013-10-13 20:11:00,58.3,33.4,29.75,North,0,3.0,3.0,39,0.00,,,0.00,meteohub,2013-10-14 01:11:00,
2013-10-13 20:16:00,58.3,32.9,29.75,North,0,2.0,3.0,38,0.00,,,0.00,meteohub,2013-10-14 01:16:00,
2013-10-13 20:21:00,58.3,32.9,29.75,North,0,2.0,3.0,38,0.00,,,0.00,meteohub,2013-10-14 01:21:00,
2013-10-13 20:26:00,58.5,32.9,29.75,NNE,22,1.0,3.0,38,0.00,,,0.00,meteohub,2013-10-14 01:26:00,
2013-10-13 20:31:00,58.3,32.9,29.75,NE,45,2.0,4.0,38,0.00,,,0.00,meteohub,2013-10-14 01:31:00,
2013-10-13 20:36:00,58.3,32.9,29.72,NE,45,2.0,4.0,38,0.00,,,0.00,meteohub,2013-10-14 01:36:00,
2013-10-13 20:41:00,58.3,32.9,29.72,North,0,2.0,2.0,38,0.00,,,0.00,meteohub,2013-10-14 01:41:00,
2013-10-13 20:46:00,58.3,32.2,29.72,NNE,22,2.0,4.0,37,0.00,,,0.00,meteohub,2013-10-14 01:46:00,
2013-10-13 20:51:00,58.3,32.2,29.75,NE,45,2.0,4.0,37,0.00,,,0.00,meteohub,2013-10-14 01:51:00,
2013-10-13 20:56:00,58.3,32.2,29.75,NNE,22,2.0,4.0,37,0.00,,,0.00,meteohub,2013-10-14 01:56:00,
2013-10-13 21:02:00,58.3,32.2,29.75,North,0,3.0,4.0,37,0.00,,,0.00,meteohub,2013-10-14 02:02:00,
2013-10-13 21:07:00,58.3,31.5,29.78,NE,45,2.0,4.0,36,0.00,,,0.00,meteohub,2013-10-14 02:07:00,
2013-10-13 21:12:00,58.1,31.3,29.78,NE,45,3.0,4.0,36,0.00,,,0.00,meteohub,2013-10-14 02:12:00,
2013-10-13 21:17:00,58.1,31.3,29.78,NNE,22,3.0,4.0,36,0.00,,,0.00,meteohub,2013-10-14 02:17:00,
2013-10-13 21:22:00,57.9,31.1,29.75,NE,45,3.0,4.0,36,0.00,,,0.00,meteohub,2013-10-14 02:22:00,
2013-10-13 21:27:00,57.7,30.9,29.75,NE,45,3.0,4.0,36,0.00,,,0.00,meteohub,2013-10-14 02:27:00,
2013-10-13 21:32:00,57.7,30.9,29.75,NNE,22,3.0,4.0,36,0.00,,,0.00,meteohub,2013-10-14 02:32:00,
2013-10-13 21:37:00,57.7,30.9,29.75,North,0,4.0,6.0,36,0.00,,,0.00,meteohub,2013-10-14 02:37:00,
2013-10-13 21:42:00,57.9,30.6,29.75,NNE,22,4.0,6.0,35,0.00,,,0.00,meteohub,2013-10-14 02:42:00,
2013-10-13 21:47:00,57.9,30.6,29.75,NNE,22,3.0,6.0,35,0.00,,,0.00,meteohub,2013-10-14 02:47:00,
2013-10-13 21:52:00,57.9,30.6,29.75,NNE,22,5.0,6.0,35,0.00,,,0.00,meteohub,2013-10-14 02:52:00,
2013-10-13 21:57:00,58.1,30.6,29.75,NE,45,5.0,6.0,35,0.00,,,0.00,meteohub,2013-10-14 02:57:00,
2013-10-13 22:02:00,58.1,30.6,29.75,North,0,5.0,6.0,35,0.00,,,0.00,meteohub,2013-10-14 03:02:00,
2013-10-13 22:07:00,58.1,29.8,29.75,NE,45,4.0,6.0,34,0.00,,,0.00,meteohub,2013-10-14 03:07:00,
2013-10-13 22:12:00,58.1,29.8,29.75,NE,45,5.0,6.0,34,0.00,,,0.00,meteohub,2013-10-14 03:12:00,
2013-10-13 22:17:00,58.1,29.8,29.75,NNE,22,6.0,6.0,34,0.00,,,0.00,meteohub,2013-10-14 03:17:00,
2013-10-13 22:22:00,58.1,29.1,29.75,NE,45,6.0,6.0,33,0.00,,,0.00,meteohub,2013-10-14 03:22:00,
2013-10-13 22:27:00,58.1,29.1,29.75,NNE,22,5.0,6.0,33,0.00,,,0.00,meteohub,2013-10-14 03:27:00,
2013-10-13 22:32:00,57.9,28.2,29.75,NE,45,4.0,6.0,32,0.00,,,0.00,meteohub,2013-10-14 03:32:00,
2013-10-13 22:37:00,58.1,27.7,29.75,NE,45,7.0,7.0,31,0.00,,,0.00,meteohub,2013-10-14 03:37:00,
2013-10-13 22:42:00,57.9,27.5,29.75,NE,45,5.0,9.0,31,0.00,,,0.00,meteohub,2013-10-14 03:42:00,
2013-10-13 22:47:00,57.9,27.5,29.75,NNE,22,5.0,9.0,31,0.00,,,0.00,meteohub,2013-10-14 03:47:00,
2013-10-13 22:52:00,57.9,27.5,29.75,ENE,68,5.0,9.0,31,0.00,,,0.00,meteohub,2013-10-14 03:52:00,
2013-10-13 22:57:00,57.7,27.3,29.75,NNE,22,3.0,7.0,31,0.00,,,0.00,meteohub,2013-10-14 03:57:00,
2013-10-13 23:01:00,57.6,26.4,29.75,NE,45,4.0,7.0,30,0.00,,,0.00,meteohub,2013-10-14 04:01:00,
2013-10-13 23:03:00,57.6,27.1,29.75,NNE,22,5.0,7.0,31,0.00,,,0.00,meteohub,2013-10-14 04:03:00,
2013-10-13 23:04:00,57.6,26.4,29.75,NNE,22,3.0,7.0,30,0.00,,,0.00,meteohub,2013-10-14 04:04:00,
2013-10-13 23:07:00,57.4,26.2,29.75,NE,45,4.0,8.0,30,0.00,,,0.00,meteohub,2013-10-14 04:07:00,
2013-10-13 23:12:00,57.4,26.2,29.75,NE,45,6.0,8.0,30,0.00,,,0.00,meteohub,2013-10-14 04:12:00,
2013-10-13 23:17:00,57.2,27.0,29.75,ENE,68,4.0,9.0,31,0.00,,,0.00,meteohub,2013-10-14 04:17:00,
2013-10-13 23:22:00,57.0,26.8,29.72,North,0,5.0,9.0,31,0.00,,,0.00,meteohub,2013-10-14 04:22:00,
2013-10-13 23:27:00,56.8,26.6,29.72,NNE,22,5.0,8.0,31,0.00,,,0.00,meteohub,2013-10-14 04:27:00,
2013-10-13 23:32:00,56.7,26.4,29.72,NE,45,6.0,6.0,31,0.00,,,0.00,meteohub,2013-10-14 04:32:00,
2013-10-13 23:37:00,56.3,27.0,29.75,North,0,4.0,7.0,32,0.00,,,0.00,meteohub,2013-10-14 04:37:00,
2013-10-13 23:42:00,56.3,27.0,29.75,NNE,22,6.0,7.0,32,0.00,,,0.00,meteohub,2013-10-14 04:42:00,
2013-10-13 23:47:00,56.1,26.8,29.75,NNE,22,4.0,7.0,32,0.00,,,0.00,meteohub,2013-10-14 04:47:00,
2013-10-13 23:52:00,55.9,26.6,29.72,NE,45,3.0,8.0,32,0.00,,,0.00,meteohub,2013-10-14 04:52:00,
2013-10-13 23:57:00,55.9,26.6,29.72,NE,45,3.0,8.0,32,0.00,,,0.00,meteohub,2013-10-14 04:57:00,